Observer details:
046 Klet.  Observers J. Ticha, M. Tichy, Z. Moravec.  0.57-m f/5.2 reflector
    + CCD.
108 Montelupo.  Observers M. Tombelli, A. Boattini, L. Tesi, D. Guidetti,
    G. Forti, E. Masotti.  Measurers M. Tombelli, A. Boattini, L. Tesi,
    S. Bartolini, G. Forti.  0.30-m f/5.7 Schmidt-Cassegrain + CCD.
118 Modra.  Observers A. Galad, J. Toth.  0.6-m f/5.5 reflector + CCD.
167 Bulach Observatory.  Observer S. Meister.  0.50-m reflector + CCD.
349 Ageo.  Observer K. Kadota.  0.18-m f/5.5 reflector + CCD.
355 Hadano.  Observer A. Asami.  0.28-m f/5.0 reflector + CCD.
360 Kuma Kogen.  Observer A. Nakamura.  0.60-m f/6.0 Ritchey-Chretien + CCD.
367 Yatsuka.  Observer H. Abe.  0.26-m f/6.0 reflector + CCD.
392 JCPM Sapporo Station.  Observer K. Watanabe.  0.30-m f/2.7 Schmidt camera.
402 Dynic Astronomical Observatory.  Observer A. Sugie.  0.60-m f/3.7 reflector
    + CCD.
411 Oizumi.  Observer T. Kobayashi.  0.41-m f/4.3 reflector + CCD.
468 Campo Catino.  Observers L. Fortuna, F. Mallia.  0.80-m f/4.0 reflector
    + CCD.
470 Ceccano.  Observer G. Masi.  0.28-m f/3.3 reflector + CCD.
620 Observatorio Astronomico de Mallorca.  Observers S. Sanchez, M. Blasco.
    Measurer J. Rodriguez.  0.30-m f/3.3 Schmidt-Cassegrain + CCD.
629 JATE Observatory, Szeged.  Observers K. Sarneczky, L. Kiss, B. Csak,
    G. Szabo.  Measurers K. Sarneczky, L. Kiss.  0.28-m Schmidt-Cassegrain
    + CCD.
704 Lincoln Laboratory ETS, New Mexico.  Observers M. Blythe, F. Shelly,
    M. Bezpalko, M. Elowitz, R. Huber.  Measurers J. Stuart, H. Viggh,
    R. Sayer.  1.0-m f/2.15 reflector + CCD.
886 Mishima.  Observer M. Akiyama.  0.25-m f/6.3 reflector + CCD.
897 Chiyoda.  Observer T. Kojima.  0.25-m f/6.0 reflector + CCD.
900 Moriyama.  Observer Y. Ikari.  0.25-m f/6.3 reflector + CCD.
903 Fukuchiyama.  Observer M. Yoshimi.  0.25-m f/6.3 Schmidt-Cassegrain + CCD.

Orbital elements:
    C/1999 S4 (LINEAR)
T 2000 July 26.4630 TT                                  Marsden
q   0.766618             (2000.0)            P               Q
                   Peri.  150.9862      +0.3099615      -0.8047749
                   Node    83.1500      -0.9406391      -0.1821394
e   1.0            Incl.  149.3454      -0.1382822      -0.5649447
From 135 observations 1999 Sept. 27-Oct. 19.

Ephemeris:
    C/1999 S4 (LINEAR)
Date    TT    R. A. (2000) Decl.     Delta      r     Elong.  Phase   m1    m2
1999 10 19    04 45.67   +35 56.0    3.393    4.096   129.2    10.9  15.8
1999 10 29    04 31.67   +36 35.1    3.167    3.987   140.9     9.0  15.5
1999 11 08    04 13.86   +37 01.4    2.972    3.877   152.4     6.8  15.3
1999 11 18    03 52.66   +37 06.9    2.816    3.766   161.4     4.8  15.0
1999 11 28    03 29.16   +36 44.9    2.703    3.653   161.7     4.9  14.8
1999 12 08    03 05.02   +35 52.9    2.637    3.539   152.4     7.4  14.6
1999 12 18    02 42.11   +34 35.2    2.614    3.424   139.7    10.7  14.4
1999 12 28    02 21.93   +33 01.3    2.630    3.308   126.2    13.9  14.3
2000 01 07    02 05.30   +31 22.8    2.675    3.190   112.9    16.5  14.2
2000 01 17    01 52.45   +29 49.8    2.740    3.070   100.2    18.4  14.1
2000 01 27    01 43.13   +28 29.2    2.813    2.949    88.1    19.5  13.9
2000 02 06    01 36.91   +27 24.4    2.887    2.827    76.6    19.8  13.8
2000 02 16    01 33.29   +26 36.5    2.951    2.702    65.9    19.5  13.7
2000 02 26    01 31.79   +26 05.0    3.000    2.576    55.7    18.5  13.5
2000 03 07    01 31.99   +25 48.7    3.029    2.448    46.2    17.0  13.3
2000 03 17    01 33.54   +25 46.5    3.031    2.318    37.2    15.0  13.1

2000 05 16    01 57.62   +29 45.7    2.371    1.504    24.0    15.9  10.6
2000 05 21    02 00.16   +30 27.7    2.258    1.435    27.2    18.8  10.3
2000 05 26    02 02.77   +31 15.0    2.135    1.366    30.7    22.2  10.0
2000 05 31    02 05.48   +32 08.9    2.004    1.297    34.2    26.1   9.6
2000 06 05    02 08.35   +33 11.0    1.863    1.229    37.7    30.3   9.2
2000 06 10    02 11.48   +34 23.6    1.714    1.162    41.2    35.2   8.8
2000 06 15    02 15.06   +35 50.5    1.556    1.098    44.7    40.6   8.4
2000 06 20    02 19.45   +37 37.2    1.389    1.035    48.0    46.8   7.9
2000 06 25    02 25.33   +39 52.8    1.215    0.976    50.9    53.9   7.3
2000 06 30    02 34.09   +42 53.0    1.035    0.921    53.4    62.3   6.7
2000 07 05    02 48.93   +47 04.4    0.853    0.873    54.8    72.2   6.1
2000 07 10    03 18.84   +53 11.7    0.673    0.831    54.5    84.3   5.3
2000 07 15    04 36.39   +61 40.0    0.510    0.799    50.8    99.6   4.6
2000 07 20    08 08.06   +63 51.9    0.395    0.777    43.3   116.4   3.9
2000 07 25    10 59.42   +42 21.8    0.383    0.767    40.7   120.2   3.8
2000 07 30    11 56.72   +19 28.2    0.483    0.770    46.8   106.0   4.3
2000 08 04    12 19.58   +05 43.2    0.641    0.785    50.7    90.2   5.0
2000 08 09    12 30.57   -02 13.4    0.819    0.811    51.2    76.9   5.7
2000 08 14    12 36.48   -07 10.8    1.001    0.847    49.8    65.9   6.3
2000 08 19    12 39.95   -10 32.0    1.180    0.892    47.3    56.4   6.9
2000 08 24    12 42.20   -12 58.0    1.352    0.943    44.2    48.4   7.4
2000 08 29    12 43.82   -14 50.2    1.515    1.000    40.8    41.3   7.9
2000 09 03    12 45.13   -16 21.0    1.668    1.060    37.3    35.2   8.4
2000 09 08    12 46.31   -17 37.6    1.812    1.124    33.8    29.9   8.8
2000 09 13    12 47.43   -18 44.6    1.945    1.190    30.3    25.2   9.2
2000 09 18    12 48.55   -19 45.0    2.068    1.257    26.9    21.2   9.6
2000 09 23    12 49.67   -20 40.8    2.180    1.325    23.8    17.8   9.9

Brian G. Marsden             (C) Copyright 1999 MPC           M.P.E.C. 1999-U14

Read MPEC 1999-U13 Read MPEC 1999-U15


Our Web policy. Index to the CBAT/MPC/ICQ pages.

